Hourly Weather Holovchyntsi

Today, 11 April, Sunday

Time Temperature Precipitation Wind Pressure Humidity
00:00 +3°C° 0 mm 3 mps 742 mmHg 63%
01:00 +3°C° 0 mm 3 mps 742 mmHg 64%
02:00 +3°C° 0 mm 3 mps 742 mmHg 66%
03:00 +3°C° 0 mm 3 mps 742 mmHg 66%
04:00 +2°C° 0 mm 3 mps 742 mmHg 67%
05:00 +2°C° 0 mm 3 mps 742 mmHg 67%
06:00 +3°C° 0 mm 3 mps 743 mmHg 64%
07:00 +5°C° 0 mm 3 mps 743 mmHg 60%
08:00 +6°C° 0 mm 4 mps 743 mmHg 55%
09:00 +8°C° 0 mm 4 mps 743 mmHg 50%
10:00 +9°C° 0 mm 5 mps 743 mmHg 45%
11:00 +11°C° 0 mm 6 mps 744 mmHg 40%
12:00 +12°C° 0 mm 5 mps 743 mmHg 38%
13:00 +13°C° 0 mm 5 mps 743 mmHg 36%
14:00 +14°C° 0 mm 5 mps 743 mmHg 34%
15:00 +13°C° 0 mm 4 mps 743 mmHg 36%
16:00 +13°C° 0 mm 4 mps 743 mmHg 38%
17:00 +13°C° 0 mm 4 mps 742 mmHg 39%
18:00 +11°C° 0 mm 4 mps 743 mmHg 45%
19:00 +9°C° 0 mm 3 mps 743 mmHg 50%
20:00 +7°C° 0 mm 3 mps 743 mmHg 56%
21:00 +7°C° 0 mm 3 mps 743 mmHg 57%
22:00 +5°C° 0 mm 3 mps 743 mmHg 58%
23:00 +5°C° 0 mm 3 mps 743 mmHg 60%

Tomorrow, 12 April, Monday

Time Temperature Precipitation Wind Pressure Humidity
00:00 +4°C° 0 mm 3 mps 743 mmHg 60%
01:00 +4°C° 0 mm 3 mps 743 mmHg 61%
02:00 +4°C° 0 mm 3 mps 743 mmHg 62%
03:00 +3°C° 0 mm 3 mps 742 mmHg 63%
04:00 +3°C° 0 mm 3 mps 742 mmHg 64%
05:00 +4°C° 0 mm 2 mps 742 mmHg 65%
06:00 +5°C° 0 mm 2 mps 742 mmHg 61%
07:00 +7°C° 0 mm 2 mps 742 mmHg 58%
08:00 +8°C° 0 mm 2 mps 742 mmHg 54%
09:00 +10°C° 0 mm 3 mps 742 mmHg 49%
10:00 +12°C° 0 mm 3 mps 741 mmHg 44%
11:00 +13°C° 0 mm 3 mps 741 mmHg 38%
12:00 +15°C° 0 mm 2 mps 741 mmHg 37%
13:00 +16°C° 0 mm 2 mps 740 mmHg 35%
14:00 +16°C° 0 mm 2 mps 740 mmHg 34%
15:00 +16°C° 0 mm 2 mps 740 mmHg 35%
16:00 +16°C° 0 mm 2 mps 739 mmHg 35%
17:00 +16°C° 0 mm 1 mps 739 mmHg 36%
18:00 +15°C° 0 mm 2 mps 739 mmHg 42%
19:00 +13°C° 0 mm 2 mps 739 mmHg 48%
20:00 +10°C° 0 mm 2 mps 739 mmHg 54%
21:00 +10°C° 0 mm 2 mps 739 mmHg 58%
22:00 +9°C° 0 mm 2 mps 739 mmHg 62%
23:00 +8°C° 0 mm 2 mps 739 mmHg 66%

Day after tomorrow, 13 April, Tuesday

Time Temperature Precipitation Wind Pressure Humidity
00:00 +8°C° 0 mm 2 mps 739 mmHg 67%
01:00 +8°C° 0 mm 1 mps 739 mmHg 68%
02:00 +8°C° 0 mm 1 mps 738 mmHg 70%
03:00 +8°C° 0 mm 1 mps 738 mmHg 70%
04:00 +8°C° 0 mm 1 mps 738 mmHg 70%
05:00 +7°C° 0 mm 1 mps 738 mmHg 70%
06:00 +9°C° 0 mm 1 mps 738 mmHg 66%
07:00 +10°C° 0 mm 1 mps 738 mmHg 63%
08:00 +10°C° 0 mm 2 mps 738 mmHg 59%
09:00 +13°C° 0 mm 2 mps 738 mmHg 55%
10:00 +14°C° 0 mm 2 mps 738 mmHg 51%
11:00 +15°C° 0 mm 2 mps 738 mmHg 48%
12:00 +15°C° 0 mm 2 mps 737 mmHg 48%
13:00 +15°C° 0 mm 2 mps 737 mmHg 48%
14:00 +15°C° 0 mm 2 mps 737 mmHg 48%
15:00 +15°C° 0 mm 2 mps 736 mmHg 54%
16:00 +14°C° 0 mm 2 mps 736 mmHg 60%
17:00 +13°C° 0 mm 2 mps 736 mmHg 65%
18:00 +12°C° 0.1 mm 2 mps 736 mmHg 72%
19:00 +12°C° 0.1 mm 2 mps 736 mmHg 79%
20:00 +11°C° 0.1 mm 1 mps 736 mmHg 86%
21:00 +11°C° 0.4 mm 1 mps 736 mmHg 89%
22:00 +11°C° 0.4 mm 1 mps 735 mmHg 91%
23:00 +10°C° 0.4 mm 1 mps 735 mmHg 94%

14 April, Wednesday

Time Temperature Precipitation Wind Pressure Humidity
00:00 +10°C° 0.3 mm 1 mps 735 mmHg 95%
01:00 +9°C° 0.3 mm 2 mps 734 mmHg 96%
02:00 +9°C° 0.3 mm 2 mps 734 mmHg 97%
03:00 +9°C° 0.2 mm 3 mps 734 mmHg 96%
04:00 +9°C° 0.2 mm 3 mps 734 mmHg 96%
05:00 +8°C° 0.2 mm 4 mps 734 mmHg 95%
06:00 +7°C° 0.3 mm 4 mps 734 mmHg 95%
07:00 +7°C° 0.3 mm 4 mps 734 mmHg 94%
08:00 +7°C° 0.3 mm 4 mps 734 mmHg 93%
09:00 +7°C° 0.1 mm 4 mps 734 mmHg 93%
10:00 +7°C° 0.1 mm 4 mps 734 mmHg 92%
11:00 +7°C° 0.1 mm 4 mps 734 mmHg 92%
12:00 +7°C° 0.1 mm 4 mps 734 mmHg 90%
13:00 +7°C° 0.1 mm 4 mps 734 mmHg 89%
14:00 +7°C° 0.1 mm 4 mps 734 mmHg 87%
15:00 +7°C° 0 mm 4 mps 734 mmHg 87%
16:00 +7°C° 0 mm 4 mps 733 mmHg 86%
17:00 +8°C° 0 mm 4 mps 733 mmHg 85%
18:00 +8°C° 0 mm 3 mps 734 mmHg 87%
19:00 +8°C° 0 mm 3 mps 734 mmHg 89%
20:00 +7°C° 0 mm 3 mps 734 mmHg 90%
21:00 +7°C° 0 mm 2 mps 734 mmHg 91%
22:00 +7°C° 0 mm 2 mps 734 mmHg 91%
23:00 +7°C° 0 mm 2 mps 734 mmHg 92%

15 April, Thursday

Time Temperature Precipitation Wind Pressure Humidity
00:00 +7°C° 0 mm 2 mps 734 mmHg 92%
01:00 +8°C° 0 mm 1 mps 734 mmHg 92%
02:00 +8°C° 0 mm 1 mps 734 mmHg 92%
03:00 +8°C° 0.1 mm 1 mps 734 mmHg 93%
04:00 +8°C° 0.1 mm 1 mps 734 mmHg 93%
05:00 +7°C° 0.1 mm 2 mps 734 mmHg 94%
06:00 +8°C° 0.4 mm 1 mps 734 mmHg 94%
07:00 +8°C° 0.4 mm 1 mps 734 mmHg 94%
08:00 +8°C° 0.4 mm 1 mps 734 mmHg 94%
09:00 +8°C° 0.1 mm 1 mps 734 mmHg 93%
10:00 +7°C° 0.1 mm 2 mps 734 mmHg 92%
11:00 +7°C° 0.1 mm 2 mps 735 mmHg 91%
12:00 +7°C° 0 mm 2 mps 735 mmHg 90%
13:00 +8°C° 0 mm 2 mps 735 mmHg 90%
14:00 +8°C° 0 mm 2 mps 735 mmHg 89%
15:00 +8°C° 0 mm 2 mps 735 mmHg 89%
16:00 +8°C° 0 mm 2 mps 734 mmHg 89%
17:00 +8°C° 0 mm 2 mps 734 mmHg 88%
18:00 +8°C° 0.2 mm 3 mps 734 mmHg 90%
19:00 +8°C° 0.2 mm 3 mps 734 mmHg 92%
20:00 +7°C° 0.2 mm 3 mps 735 mmHg 94%
21:00 +7°C° 0.1 mm 3 mps 734 mmHg 94%
22:00 +7°C° 0.1 mm 3 mps 734 mmHg 93%
23:00 +6°C° 0.1 mm 4 mps 734 mmHg 92%

16 April, Friday

Time Temperature Precipitation Wind Pressure Humidity
00:00 +6°C° 0 mm 4 mps 734 mmHg 92%
01:00 +6°C° 0 mm 4 mps 733 mmHg 92%
02:00 +6°C° 0 mm 5 mps 733 mmHg 91%
03:00 +6°C° 0 mm 5 mps 733 mmHg 92%
04:00 +6°C° 0 mm 5 mps 733 mmHg 93%
05:00 +5°C° 0 mm 6 mps 733 mmHg 93%
06:00 +5°C° 0 mm 6 mps 733 mmHg 92%
07:00 +5°C° 0 mm 6 mps 733 mmHg 90%
08:00 +5°C° 0 mm 7 mps 733 mmHg 88%
09:00 +5°C° 0.1 mm 7 mps 734 mmHg 89%
10:00 +5°C° 0.1 mm 7 mps 734 mmHg 89%
11:00 +6°C° 0.1 mm 7 mps 734 mmHg 90%
12:00 +6°C° 0.7 mm 7 mps 734 mmHg 91%
13:00 +6°C° 0.7 mm 7 mps 734 mmHg 92%
14:00 +6°C° 0.7 mm 7 mps 734 mmHg 94%
15:00 +6°C° 0.6 mm 7 mps 734 mmHg 94%
16:00 +6°C° 0.6 mm 7 mps 734 mmHg 94%
17:00 +8°C° 0.6 mm 6 mps 735 mmHg 94%
18:00 +8°C° 0.3 mm 6 mps 735 mmHg 95%
19:00 +8°C° 0.3 mm 6 mps 735 mmHg 95%
20:00 +8°C° 0.3 mm 6 mps 736 mmHg 96%
21:00 +7°C° 0.6 mm 5 mps 736 mmHg 96%
22:00 +7°C° 0.6 mm 5 mps 737 mmHg 96%
23:00 +7°C° 0.6 mm 5 mps 737 mmHg 96%
Show more